Lapse_Rate
6.3 6.3 6.3 6.2 6.2 6.1 5.9 5.8 5.6 5.4 5.3 5.1 5.2 5.4 5.5 5.5 5.6 5.5 5.3 5.3 5.2 5.1 5.1 5.0 5.0 5.0 5.0 5.0 5.6 4.9 5.4 6.0 6.4 6.5 6.2 6.3 6.2 6.0 6.0 6.2 6.4 6.0 6.3 6.6 7.0 7.2 7.0
6.1 6.0 5.9 5.8 5.6 5.4 5.2 5.1 4.9 4.7 4.4 4.3 4.3 4.4 4.4 4.5 4.9 5.0 5.2 5.3 5.0 5.0 5.0 5.0 5.0 4.9 4.9 5.2 5.4 5.5 4.7 5.6 6.1 6.4 6.5 6.1 5.9 6.0 5.7 6.0 6.1 6.2 5.9 6.2 6.5 6.9 7.1
5.7 5.6 5.4 5.3 5.2 5.1 4.8 4.5 4.1 3.8 3.6 3.5 3.5 3.6 3.8 3.9 3.9 4.0 4.3 4.8 4.8 4.6 4.7 4.9 5.0 5.0 5.0 6.0 5.2 6.1 5.2 5.1 5.7 6.2 6.4 6.6 6.2 5.8 5.7 6.0 6.2 6.1 6.0 6.1 6.6 6.9 7.0
5.3 5.0 4.8 4.5 4.3 4.2 4.2 4.2 4.0 3.9 3.6 3.4 3.4 3.4 3.3 3.5 3.7 3.8 3.7 3.8 4.2 4.4 4.4 4.4 4.7 4.9 5.4 5.4 5.5 5.5 5.7 5.4 5.4 6.0 6.3 6.1 5.9 6.0 5.5 5.7 6.0 5.9 6.0 5.9 6.9 6.9 6.9
4.6 4.3 3.9 3.6 3.5 3.6 3.8 3.7 3.5 3.6 3.9 4.2 4.2 4.1 3.8 3.5 3.3 3.3 3.4 3.5 3.3 3.0 3.6 4.2 4.5 4.6 5.2 5.1 5.2 5.8 6.0 5.8 5.6 5.7 6.0 5.7 5.5 5.7 5.7 5.2 5.3 5.6 6.0 6.2 6.4 6.5 6.3
4.0 3.8 3.7 3.6 3.7 3.8 3.8 3.7 3.8 4.1 4.5 5.5 5.7 5.6 5.1 4.3 3.6 3.3 3.1 3.2 3.1 2.9 3.1 3.6 4.2 4.6 4.7 4.5 4.7 5.5 5.9 5.8 5.6 5.3 5.2 5.6 4.9 5.3 5.4 4.5 4.6 4.9 5.3 5.4 5.3 6.0 6.6
4.0 3.9 3.8 3.7 3.8 3.9 3.9 4.1 4.4 4.6 5.5 5.6 5.7 5.9 6.0 5.6 4.7 3.8 3.6 3.2 3.4 3.6 3.3 4.0 4.7 4.9 4.6 4.7 4.9 5.0 6.1 6.0 6.0 5.6 4.9 5.2 5.3 4.6 5.5 5.3 5.1 5.6 5.4 5.4 5.7 6.1 6.4
4.1 3.9 3.8 3.8 3.9 4.1 4.1 4.4 4.8 5.1 5.6 5.8 6.1 6.1 6.4 6.2 5.5 5.0 4.6 3.8 3.8 3.9 3.9 3.8 4.3 4.3 4.6 4.3 4.6 4.9 5.5 5.6 5.8 6.0 5.5 5.2 5.1 5.1 5.2 5.4 5.0 5.0 5.2 5.5 5.8 6.0 6.3
4.2 4.1 3.9 3.8 4.0 4.2 4.3 4.7 5.1 5.3 5.6 5.9 6.4 6.5 6.6 6.4 6.2 5.8 5.4 4.9 4.6 4.1 4.0 4.8 4.9 4.9 5.4 5.2 5.1 5.4 5.5 5.1 5.5 6.2 5.9 5.7 6.4 6.1 5.7 5.8 5.6 5.4 5.3 5.5 5.7 6.2 6.4
4.3 4.2 4.1 4.0 4.2 4.3 4.4 4.8 5.1 5.3 5.8 6.2 6.6 6.7 6.9 7.0 7.2 7.1 6.7 6.6 6.1 4.7 4.6 5.2 5.2 4.7 5.2 5.4 5.1 6.1 5.3 5.2 5.1 5.7 5.7 5.8 6.4 6.1 5.9 5.7 5.9 5.5 5.6 5.7 5.7 6.0 5.7
4.3 4.4 4.4 4.3 4.4 4.5 4.6 4.9 5.3 5.4 5.9 6.4 6.7 6.9 7.2 7.5 7.7 7.4 7.5 7.7 7.3 5.3 4.0 6.2 5.6 5.1 5.4 5.2 4.9 6.0 6.5 5.7 5.7 5.5 5.6 5.9 5.5 6.0 5.8 5.5 5.8 5.7 5.8 6.1 6.1 6.1 6.2
4.5 4.6 4.6 4.6 4.6 4.6 4.7 4.9 5.4 5.5 5.6 6.3 6.6 7.0 7.5 7.6 7.3 7.4 7.6 7.6 7.6 7.4 5.0 7.0 6.4 5.7 5.6 5.1 4.8 5.1 5.6 5.4 5.4 5.8 6.0 5.9 6.2 6.2 6.4 6.5 6.0 5.8 5.6 5.9 6.3 6.2 6.3
4.5 4.6 4.7 4.7 4.8 4.8 4.8 4.9 5.4 5.5 5.5 6.0 6.5 6.9 7.5 7.5 7.4 7.2 7.4 7.5 7.7 7.5 7.9 7.3 7.2 7.0 5.9 5.6 5.4 5.4 5.5 5.3 5.5 5.8 6.0 5.7 5.6 5.8 6.0 5.6 5.8 5.7 5.6 5.8 6.4 6.6 5.2
4.5 4.5 4.6 4.8 4.9 4.9 4.9 4.9 5.3 5.6 5.5 5.6 6.3 6.9 7.2 7.5 7.8 7.5 7.3 7.6 7.8 7.8 7.8 7.4 7.4 7.3 7.0 6.2 5.3 5.2 5.9 5.8 5.5 5.6 5.6 5.5 5.8 5.9 6.0 5.5 5.7 6.0 5.6 6.0 5.7 5.5 5.1
4.5 4.5 4.7 4.8 4.8 4.9 4.8 4.9 5.2 5.6 5.5 5.4 6.0 6.9 7.1 7.4 7.8 8.1 7.7 7.8 7.8 7.8 7.6 7.6 7.8 7.3 6.9 6.7 6.5 5.7 5.7 5.9 5.3 5.4 5.4 5.4 5.5 6.0 6.1 6.2 5.9 6.0 6.4 6.2 6.6 7.0 6.4
4.5 4.6 4.8 4.8 4.7 4.7 4.8 4.9 5.1 5.5 5.7 5.5 5.9 6.7 6.9 7.4 7.9 8.0 8.2 8.1 7.9 7.7 7.7 7.7 7.4 7.4 6.9 6.9 6.8 6.6 6.1 6.1 5.8 5.2 4.8 4.8 4.5 5.8 6.2 6.2 6.5 6.4 6.6 6.5 6.7 6.8 6.7
4.5 4.6 4.8 4.9 4.8 4.7 4.8 4.9 5.1 5.3 5.8 5.6 5.7 6.4 6.8 7.4 7.9 8.1 8.1 7.9 7.9 7.8 7.6 7.8 7.8 7.4 7.1 6.7 6.8 6.5 6.3 6.4 6.0 5.8 5.2 4.8 4.1 5.5 5.9 6.1 6.2 6.4 6.3 6.3 6.1 6.2 6.1
4.6 4.6 4.8 4.9 4.9 4.7 4.7 5.0 5.0 5.2 5.6 5.7 5.8 6.1 6.6 7.2 7.7 8.0 7.8 7.7 7.8 7.9 7.9 8.0 7.8 7.7 7.6 7.0 6.7 6.8 6.6 6.4 6.3 6.2 6.0 5.5 4.5 4.3 5.8 6.3 5.4 5.7 5.8 6.1 6.6 6.3 6.3
4.7 4.6 4.7 4.9 4.9 4.8 4.8 4.9 5.1 5.1 5.5 5.8 5.9 6.0 6.3 6.8 7.2 7.6 7.7 7.7 7.7 7.9 7.9 8.0 8.0 7.8 7.7 7.5 6.8 6.7 6.7 6.6 6.2 6.1 6.1 6.1 5.5 4.9 5.7 6.9 6.7 5.9 5.6 4.7 4.6 4.8 5.5
4.8 4.6 4.6 4.7 5.0 4.8 4.8 4.8 5.1 5.1 5.3 5.6 6.0 6.0 6.1 6.4 6.7 7.0 7.3 7.7 7.8 7.6 7.7 7.6 7.7 7.9 7.8 7.7 7.6 7.0 7.2 7.0 6.7 6.1 6.1 6.0 6.0 5.6 5.2 6.1 6.3 6.1 5.7 4.8 4.6 4.8 5.3
4.9 4.7 4.6 4.5 4.8 5.0 4.9 4.8 4.9 5.1 5.1 5.3 5.5 5.8 5.9 6.0 6.2 6.5 6.8 7.3 7.4 7.5 7.7 7.6 7.8 7.6 7.6 7.7 8.1 7.9 7.7 7.8 7.9 7.2 6.6 6.0 6.0 6.3 6.1 5.9 6.1 5.8 5.6 5.7 4.8 4.7 4.6
5.0 4.9 4.6 4.5 4.7 4.9 5.0 5.0 4.8 4.9 5.0 5.1 5.1 5.4 6.0 6.1 5.9 6.1 6.2 6.8 7.1 7.0 7.3 7.7 7.5 7.7 7.6 7.5 7.5 7.5 7.7 7.7 7.8 7.8 7.2 6.7 6.1 6.0 6.2 6.3 6.2 6.0 6.0 5.8 5.6 5.0 4.9
5.1 5.0 4.8 4.6 4.6 4.8 5.0 5.1 5.0 4.8 4.8 4.9 5.0 5.0 5.4 6.1 6.0 5.9 6.2 6.3 6.7 6.6 7.2 7.3 7.3 7.4 7.8 8.0 7.4 7.5 7.5 7.5 7.6 7.7 7.7 7.3 6.9 6.4 6.1 6.7 6.6 6.2 6.3 6.4 6.2 6.1 6.2
5.1 5.1 4.9 4.7 4.7 4.7 4.9 5.0 5.1 4.9 4.8 4.8 4.8 5.0 5.0 5.9 6.1 6.2 6.0 6.0 6.5 6.5 6.4 7.4 7.3 7.1 7.8 7.2 7.2 7.4 7.4 7.5 7.8 8.1 8.2 7.8 7.7 7.0 6.3 6.6 6.7 6.4 7.1 6.9 6.7 6.8 6.9
5.1 5.2 5.1 4.8 4.6 4.7 4.7 4.9 4.9 4.9 4.7 4.7 4.7 4.8 4.7 5.1 5.7 6.3 6.5 6.4 6.6 6.7 6.8 6.5 7.6 6.9 6.9 6.9 6.7 6.7 6.9 7.2 7.8 7.8 8.0 7.8 7.5 7.3 7.3 6.7 7.0 6.8 6.9 7.2 7.4 7.4 7.2
5.3 5.3 5.2 4.9 4.6 4.7 4.7 4.8 4.8 4.8 4.8 4.7 4.7 4.6 4.7 4.7 5.5 5.5 6.1 6.5 6.6 6.5 6.6 7.0 7.1 6.8 6.5 6.4 6.4 6.4 6.6 7.0 6.9 7.4 7.8 8.1 8.1 7.2 7.2 6.9 6.0 7.1 7.4 7.3 7.6 6.4 6.8
5.3 5.4 5.3 5.0 4.8 4.8 4.8 4.9 4.9 4.8 4.7 4.7 5.0 4.4 4.6 5.1 6.2 5.4 5.7 6.1 6.2 6.4 6.2 6.7 6.7 6.5 6.7 6.5 6.4 6.4 6.4 6.8 6.5 6.8 7.2 7.4 7.5 7.0 7.0 7.1 6.5 7.0 7.6 7.9 7.8 8.1 7.5
5.4 5.5 5.4 5.1 4.8 4.8 4.9 4.9 5.0 5.0 4.8 4.8 5.1 4.9 4.1 4.8 5.9 5.9 5.9 6.0 5.9 6.1 6.2 6.1 5.7 6.6 6.6 6.4 6.4 6.6 6.3 6.5 6.5 6.8 7.0 7.2 7.2 6.9 6.9 6.9 6.4 7.3 7.7 7.2 8.2 7.9 7.9
5.6 5.7 5.5 5.2 4.9 4.9 5.0 5.0 4.9 5.0 5.0 4.9 5.2 5.0 4.5 3.7 5.4 6.2 6.0 6.0 6.3 6.1 5.6 5.8 6.1 6.3 6.0 6.3 6.7 6.4 6.2 6.4 6.5 6.4 6.7 6.6 7.2 7.3 7.2 7.0 7.2 7.5 7.7 7.8 7.8 7.4 7.4
Wind_Speed
11 11 11 11 10 11 12 13 14 16 17 18 19 19 19 20 21 22 21 16 13 13 14 15 16 15 7 9 12 18 23 19 7 6 5 8 6 5 5 4 4 8 2 6 6 9 6
11 12 12 11 11 12 14 14 15 16 17 19 21 22 21 21 22 22 22 20 14 14 13 13 13 14 4 21 3 20 12 4 5 4 2 6 5 8 5 6 10 4 5 8 9 13 5
12 12 12 12 12 12 13 13 14 16 17 18 20 21 21 22 24 23 22 21 16 14 14 14 12 5 11 24 9 15 7 4 1 2 2 3 6 5 4 5 9 11 11 10 14 4 6
8 9 10 11 11 12 12 13 14 15 16 17 18 20 20 21 23 23 22 20 17 14 15 14 8 2 9 8 16 18 9 13 12 7 6 9 8 7 5 6 6 4 5 10 10 11 6
11 11 12 12 11 12 12 13 15 15 17 18 18 19 17 18 21 21 17 16 17 15 16 14 4 3 10 8 6 16 13 13 9 4 5 9 4 6 3 4 3 6 8 12 10 4 5
10 11 12 13 14 15 15 15 14 16 17 17 18 17 16 19 22 22 14 13 14 13 6 6 4 3 5 5 5 4 7 12 2 2 1 7 5 5 3 7 14 10 11 6 5 3 11
11 11 12 13 14 15 15 15 15 15 16 17 17 17 16 18 21 19 9 3 3 2 4 8 5 4 3 10 6 7 2 10 5 4 8 5 5 16 28 17 10 3 4 7 3 9 6
11 12 13 13 14 14 15 15 16 16 17 18 18 17 16 19 20 18 4 1 5 6 7 12 18 18 21 9 9 18 3 7 8 15 10 3 20 26 5 10 8 11 6 15 3 4 2
13 13 14 15 14 14 14 15 16 17 16 17 18 15 15 19 17 7 4 3 10 6 5 7 9 7 9 11 10 21 4 5 6 11 21 22 28 10 13 10 12 16 17 18 10 6 11
14 14 15 15 15 14 13 14 15 16 16 16 17 12 10 16 5 6 1 11 9 4 3 6 3 6 4 5 6 7 10 2 9 16 15 15 21 8 19 17 15 18 12 11 11 1 11
15 16 16 16 15 14 13 13 13 15 16 15 15 13 3 9 5 3 7 13 10 2 4 9 7 2 6 5 8 3 6 7 14 11 13 21 15 23 20 20 12 12 5 6 8 12 10
17 18 17 16 15 14 12 11 11 13 15 14 14 13 7 2 1 6 14 9 1 5 2 6 8 12 15 8 8 10 5 3 2 9 9 21 2 11 24 20 9 5 4 5 5 7 9
19 20 19 17 15 13 11 9 10 11 13 14 13 13 6 2 3 7 9 3 4 4 5 7 10 6 16 11 12 15 6 3 1 3 11 19 17 11 7 15 14 18 11 8 7 8 15
19 20 20 18 12 10 8 7 7 8 11 14 14 12 5 5 11 10 3 4 7 4 4 6 9 11 6 12 8 15 10 6 14 8 1 7 14 19 15 20 12 16 19 11 16 13 20
19 20 19 13 5 5 5 5 5 6 10 14 11 3 3 3 6 2 4 5 5 4 5 8 8 4 3 7 3 8 12 7 7 13 3 4 6 7 19 19 17 12 16 26 17 17 7
19 18 15 11 4 2 3 3 4 4 8 10 2 3 4 14 4 4 4 1 3 4 6 5 5 6 7 8 4 3 5 3 4 7 5 8 6 5 6 4 20 24 5 7 8 10 22
17 16 14 10 5 2 1 3 3 2 6 5 3 3 3 15 3 4 3 4 4 6 7 5 3 3 3 5 5 1 2 3 7 2 4 1 2 8 6 3 4 5 7 8 6 4 6
15 15 12 9 6 3 1 3 3 1 2 6 2 2 4 4 3 1 1 2 6 6 3 3 1 3 2 6 4 3 2 1 6 2 2 4 2 4 6 15 8 5 7 6 6 7 4
12 14 12 9 7 4 2 3 4 2 3 3 2 2 3 4 2 3 4 4 3 3 4 4 3 4 1 3 4 3 5 5 4 5 5 3 1 3 9 2 6 5 2 6 9 2 4
10 12 13 9 7 6 4 2 4 4 6 4 3 2 4 3 1 0 2 4 4 3 5 3 3 3 3 2 4 5 6 4 4 5 12 3 3 5 5 7 3 4 5 1 2 2 5
9 9 9 11 9 5 4 1 2 6 8 4 2 3 4 2 4 2 1 2 4 3 2 3 2 1 4 2 3 3 2 6 5 7 1 6 5 7 12 14 13 13 14 13 11 9 5
8 7 7 7 7 10 6 1 1 6 11 3 3 2 1 2 2 2 2 3 4 4 3 4 4 8 3 4 6 9 5 3 5 5 1 3 4 3 5 9 14 17 15 13 14 13 13
8 7 7 5 5 6 7 8 2 11 7 2 1 2 3 3 2 2 4 5 5 3 6 8 5 8 7 12 11 11 10 7 8 8 5 5 3 1 8 9 7 8 17 14 12 15 16
8 7 7 7 5 4 4 5 6 8 10 3 3 2 2 4 4 4 5 5 9 7 10 15 9 6 7 5 4 3 6 13 15 18 14 8 9 3 9 2 10 11 9 14 20 20 20
12 10 8 7 7 6 4 3 4 4 5 2 3 2 2 3 4 6 10 9 9 7 9 11 17 12 8 4 1 4 4 6 6 13 15 16 6 4 5 7 9 13 17 12 10 19 16
10 11 11 10 8 8 7 6 4 5 3 2 2 2 2 2 5 5 3 4 7 5 5 5 4 6 4 2 3 5 4 6 5 5 4 12 15 8 1 4 7 22 17 12 12 16 18
11 11 12 11 11 11 11 10 9 9 8 3 2 5 2 3 6 7 6 5 4 2 3 6 5 4 3 3 4 5 6 5 5 7 4 3 4 15 11 10 11 5 6 5 7 11 12
12 12 12 12 12 12 12 12 11 11 10 5 2 10 4 5 9 10 10 8 4 4 8 3 5 3 1 3 3 4 3 5 5 11 6 9 6 4 6 8 17 7 3 10 12 5 7
14 13 13 13 13 12 12 12 13 13 12 10 3 5 8 6 5 4 10 16 17 21 7 5 6 4 3 2 2 1 3 3 3 2 3 7 8 5 9 7 6 5 7 9 4 9 13
Wind_Direction
35 30 23 20 15 5 355 349 344 340 338 336 333 331 327 323 318 314 314 296 298 307 313 313 317 327 325 236 235 270 295 332 35 105 187 195 185 162 202 225 238 231 257 266 257 272 251
28 21 16 8 0 352 346 344 341 339 335 332 330 325 323 320 315 310 305 297 288 297 307 310 314 323 254 248 176 254 295 352 79 48 9 210 214 201 242 231 233 268 261 272 265 263 248
20 13 6 357 348 344 342 341 338 334 331 328 325 323 321 317 311 305 299 296 282 288 300 306 311 305 259 243 305 304 317 311 33 128 289 261 305 246 182 280 260 268 277 297 261 236 247
11 7 1 0 353 346 339 335 329 334 332 331 327 322 319 318 315 302 293 289 286 287 295 303 310 269 253 277 247 274 266 268 252 236 222 257 261 267 190 283 308 256 185 244 258 222 211
13 6 360 354 346 339 335 332 335 336 333 330 330 327 322 324 326 319 296 293 289 287 288 289 283 192 271 295 254 242 231 245 254 213 230 261 251 200 210 166 291 221 241 229 264 213 218
2 357 352 349 344 340 337 334 335 336 331 329 328 327 327 330 329 327 312 299 280 281 292 246 237 339 258 273 244 225 203 207 232 104 236 204 191 192 187 184 213 226 231 248 204 237 199
343 338 335 333 335 331 332 336 335 332 332 331 329 326 324 330 324 321 313 350 354 289 228 206 193 248 284 358 1 339 311 170 158 167 201 190 176 214 216 217 241 353 255 247 256 254 289
334 328 326 325 325 329 325 333 332 332 332 336 333 328 328 331 322 309 274 223 294 97 296 254 259 253 266 297 295 302 270 163 178 204 166 225 224 223 160 213 225 260 289 267 282 261 255
338 333 332 325 315 316 322 325 330 333 331 336 337 333 337 330 318 322 314 32 315 290 245 256 222 242 234 194 223 259 193 222 196 189 194 199 226 184 196 198 199 224 233 247 247 347 295
333 326 323 317 314 313 308 317 323 327 334 335 338 339 353 347 5 339 188 336 322 285 14 287 227 264 200 198 264 235 196 223 206 208 198 221 236 225 210 211 203 237 219 254 267 247 256
329 322 315 309 304 303 304 301 314 324 333 331 336 338 338 48 306 326 278 325 348 26 40 344 352 323 210 147 324 258 204 177 229 208 174 218 191 213 232 231 193 247 194 215 202 219 248
327 321 313 306 299 294 293 296 302 320 329 330 331 332 325 288 265 251 294 318 57 45 284 358 332 41 26 353 4 331 340 257 226 243 273 243 261 206 220 237 220 228 227 244 220 228 233
327 324 318 309 295 287 279 286 294 313 325 329 328 330 316 191 259 314 332 353 39 83 292 7 357 78 49 7 8 17 334 40 312 193 227 252 247 260 262 237 231 231 220 240 231 219 233
332 328 325 312 293 275 269 274 290 309 325 326 326 325 306 235 278 320 359 42 57 259 281 12 342 67 71 19 17 18 12 38 26 356 75 260 240 220 219 230 218 214 209 216 221 220 242
337 337 338 340 289 262 255 266 283 309 326 329 336 338 328 285 315 87 66 49 196 230 340 340 331 19 26 41 43 28 12 30 36 27 342 313 248 331 216 216 202 219 216 221 242 266 276
343 346 350 358 355 284 249 258 274 311 329 344 21 357 301 325 337 57 67 214 231 249 347 1 40 22 1 360 17 36 44 323 5 25 31 7 289 331 320 292 219 216 197 220 217 221 230
349 351 356 2 12 20 279 261 264 303 335 3 39 28 272 339 43 48 118 226 279 317 28 358 354 302 329 3 325 312 200 135 199 53 90 334 3 314 334 249 275 225 227 225 270 212 225
351 356 360 8 12 6 313 268 258 260 7 55 71 19 302 9 43 32 102 297 316 317 347 302 278 13 25 331 302 297 220 304 188 191 199 198 159 279 266 285 334 55 6 28 240 230 242
350 360 359 3 4 351 321 280 233 213 115 111 109 242 315 73 87 329 307 305 280 290 305 335 329 54 318 300 347 330 342 310 218 204 193 178 243 339 332 337 80 82 52 11 309 227 237
344 355 8 3 357 347 324 287 203 190 151 87 76 9 325 27 298 183 313 281 300 290 275 239 268 294 13 302 202 275 290 293 5 250 260 162 217 190 219 258 223 283 278 231 280 289 348
340 347 356 12 16 5 7 276 205 188 161 89 59 246 189 284 316 211 254 264 292 302 279 304 315 158 304 287 293 265 288 304 292 274 304 147 237 239 244 266 285 282 284 282 246 232 251
337 338 347 3 10 26 17 322 202 179 142 79 139 162 283 259 271 182 250 254 231 258 229 270 234 288 273 260 240 285 254 232 248 301 194 177 254 239 250 254 266 271 271 263 262 255 250
328 337 339 339 354 13 17 24 207 166 130 128 219 299 108 249 232 132 224 234 253 326 274 244 298 307 261 251 252 249 232 217 226 237 227 203 219 207 266 269 281 264 242 239 240 240 237
297 313 321 346 336 339 3 12 25 188 180 139 194 131 151 263 194 206 232 235 267 251 270 283 272 247 247 338 295 285 253 247 243 246 226 233 221 178 268 139 249 242 251 231 236 244 239
269 280 299 308 319 341 342 350 343 334 210 145 184 176 221 251 218 248 245 257 268 265 272 270 273 254 296 266 337 338 321 348 264 236 226 215 208 246 249 239 270 285 270 238 220 253 246
264 268 274 283 289 293 303 309 312 309 297 128 218 174 236 289 234 238 249 218 268 265 313 240 289 281 219 178 209 220 221 227 292 295 197 208 212 211 111 227 230 242 243 251 254 266 257
269 274 270 271 270 273 279 282 282 281 285 240 227 171 164 247 237 217 224 230 201 184 240 286 285 315 160 209 244 236 241 217 241 235 231 161 200 222 234 242 256 307 216 159 208 254 270
262 264 270 276 276 275 271 272 272 269 270 273 246 186 214 260 258 230 219 228 252 205 253 262 342 311 325 226 213 235 210 226 240 235 241 221 187 206 223 241 265 220 189 194 214 252 268
258 264 267 271 270 268 269 273 274 271 264 257 250 209 202 246 270 244 248 241 234 240 235 204 227 250 246 285 264 287 289 269 255 254 310 257 208 213 202 222 246 244 221 235 203 262 266